This demonstration page uses our WeatherBlox Daily Observations layout. Learn more.

Left ArrowRight Arrow

34.02893, -84.19858

Hourly Observations for May 18, 2022

Temp ( °F °C ) Dew Point ( °F °C ) Humidity (%) Winds ( mph kmh ) Pressure ( in mb ) Visibility ( mi km ) Precip ( " mm )
12:53 am 00:53 Clear 61 16.1 54 12.2 78 78 Calm 30.01 1016 10 16 0.00 0.00
1:53 am 01:53 Clear 59 15 54 12.2 83 83 Calm 30.01 1016 10 16 0.00 0.00
2:53 am 02:53 Clear 58 14.4 54 12.2 87 87 Calm 30.00 1016 10 16 0.00 0.00
3:53 am 03:53 Clear 56 13.3 54 12.2 93 93 Calm 29.99 1016 10 16 0.00 0.00
4:53 am 04:53 Clear 56 13.3 54 12.2 93 93 Calm 30.01 1016 10 16 0.00 0.00
5:53 am 05:53 Clear 55 12.8 53 11.7 93 93 Calm 30.01 1016 10 16 0.00 0.00
6:53 am 06:53 Sunny 55 12.8 53 11.7 93 93 Calm 30.01 1016 10 16 0.00 0.00
7:53 am 07:53 Sunny 63 17.2 58 14.4 84 84 Calm 30.03 1017 10 16 0.00 0.00
8:53 am 08:53 Sunny 70 21.1 55 12.8 59 59 N 5 7 30.04 1017 10 16 0.00 0.00
9:53 am 09:53 Sunny 74 23.3 53 11.7 48 48 Calm 30.05 1018 10 16 0.00 0.00
10:53 am 10:53 Sunny 77 25 54 12.2 45 45 VRB 5 7 30.04 1017 10 16 0.00 0.00
11:53 am 11:53 Sunny 81 27.2 54 12.2 39 39 VRB 7 11 30.02 1017 10 16 0.00 0.00
12:53 pm 12:53 Sunny 83 28.3 53 11.7 36 36 S 6 9 30.01 1016 10 16 0.00 0.00
1:53 pm 13:53 Sunny 84 28.9 53 11.7 34 34 VRB 7 11 29.98 1015 10 16 0.00 0.00
2:53 pm 14:53 Sunny 87 30.6 54 12.2 32 32 S 9 15 29.96 1015 10 16 0.00 0.00
3:53 pm 15:53 Sunny 87 30.6 52 11.1 30 30 SSW 6 9 29.94 1014 10 16 0.00 0.00
4:53 pm 16:53 Sunny 87 30.6 53 11.7 31 31 S 8 13 29.91 1013 10 16 0.00 0.00
5:53 pm 17:53 Sunny 88 31.1 54 12.2 31 31 SSW 13 20 29.88 1012 10 16 0.00 0.00
6:53 pm 18:53 Sunny 84 28.9 55 12.8 37 37 W 9 15 29.89 1012 10 16 0.00 0.00
7:53 pm 19:53 Sunny 82 27.8 55 12.8 40 40 SW 7 11 29.88 1012 10 16 0.00 0.00
8:53 pm 20:53 Clear 76 24.4 54 12.2 47 47 SSW 5 7 29.88 1012 10 16 0.00 0.00
9:53 pm 21:53 Clear 76 24.4 55 12.8 48 48 SW 7 11 29.89 1012 10 16 0.00 0.00
10:53 pm 22:53 Clear 73 22.8 58 14.4 59 59 SSW 6 9 29.90 1013 10 16 0.00 0.00
11:53 pm 23:53 Clear 75 23.9 59 15 58 58 SW 8 13 29.89 1012 10 16 0.00 0.00

Powered by AerisWeather